Вернуться в каталог

STARLINK-31104

АктивенСвязьVLEO
NORAD 58672·PAYLOAD·🇺🇸 United States

Запущен Dec 29, 2023 с Cape Canaveral Space Force Station

Loading…

Ближайшие Пролёты (ближайшие 24 часа)

TLE

СвежийSource: CelesTrak SupGP

Эпоха: Sep 14, 2026, 21:10 UTC

1 58672C 23211F   26257.88243056  .00145180  00000+0  10811-2 0  2573
2 58672  42.9853  54.7903 0029156 307.5829 248.3909 15.71151366    18

Отслеживайте STARLINK-31104 в реальном времени с AllMySat

Download on the App Store